485  
ASUS43 KMPX 291601  
RWRMN  
WEATHER ROUNDUP FOR MINNESOTA  
NATIONAL WEATHER SERVICE TWIN CITIES/CHANHASSEN MN  
1100 AM CDT SUN MAR 29 2015  
 
NOTE: "FAIR" INDICATES FEW OR NO CLOUDS BELOW 12,000 FEET WITH NO  
SIGNIFICANT WEATHER AND/OR S TO VISIBILITY
. N/A MEANS  
CURRENT SKY AND/OR WEATHER CONDITIONS ARE NOT AVAILABLE.  
 
MNZ060>063-068>070-291700-  
TWIN CITIES METRO  
 
CITY SKY/WX TMP DP RH WIND PRES REMARKS
 
TWIN CITIES CLOUDY 46 38 73 W17 29.56F  
ST PAUL CLOUDY 45 37 73 W10 29.56F  
CRYSTAL CLOUDY 46 39 76 W15 29.54F  
BLAINE CLOUDY 45 39 81 SW9G17 29.54S  
LAKEVILLE CLOUDY 45 37 76 W16G24 29.57F  
EDEN PRAIRIE CLOUDY 46 38 73 W16 29.56F  
SOUTH ST PAUL CLOUDY 46 38 74 SW13G20 29.55F  
LAKE ELMO CLOUDY 43 37 81 SW14G25 29.56F  

 
MNZ001>005-007-008-013>017-022>024-027-028-291700-  
NORTHWEST MINNESOTA  
 
CITY SKY/WX TMP DP RH WIND PRES REMARKS
 
BEMIDJI CLOUDY 37 33 85 NW26G37 29.63R  
HALLOCK CLOUDY 39 34 81 NW24G35 29.80R  
ROSEAU CLOUDY 36 30 80 NW28G41 29.69R  
WARROAD FLURRIES 36 32 87 NW23G33 29.66R  
THIEF RVR FALL CLOUDY 37 32 81 NW29G36 29.75R  
CROOKSTON CLOUDY 39 36 87 N28G38 29.80R  
FOSSTON CLOUDY 36 32 87 NW23G38 29.73R  
DETROIT LAKES CLOUDY 36 34 93 NW35G43 29.74R  
MOORHEAD MOSUNNY 45 39 81 NW30G43 29.81R  
PARK RAPIDS CLOUDY 40 34 79 NW23G37 29.63R  
MAHNOMEN CLOUDY 36 32 85 NW32G45 29.72R  

 
MNZ006-009>011-018-025>026-291700-  
NORTH CENTRAL MINNESOTA  
 
CITY SKY/WX TMP DP RH WIND PRES REMARKS
 
BAUDETTE CLOUDY 34 31 88 NW24G32 29.61R WCI 21  
FLAG ISLAND CLOUDY 34 30 86 NW28G33 29.63R WCI 20  
INTL FALLS CLOUDY 37 34 89 NW22G28 29.52R  
WASKISH CLOUDY 36 34 93 NW20G26 29.62R  
BIG FORK N/A 37 N/A N/A NW13G22 29.53R  
LONGVILLE CLOUDY 37 36 93 NW16G28 29.57R  
GRAND RAPIDS CLOUDY 37 34 87 NW22 29.50R  
CRANE LAKE CLOUDY N/A N/A N/A NW8 29.47R  
ORR FLURRIES 36 32 87 NW16G23 29.45R  
COOK LGT SNOW 34 34 100 W10 29.47R WCI 26  
WALKER CLOUDY 37 33 85 NW14G26 29.59R  

 
MNZ012-019>021-037-291700-  
NORTHEAST MINNESOTA  
 
CITY SKY/WX TMP DP RH WIND PRES REMARKS
 
DULUTH CLOUDY 34 31 88 SW13 29.46S FOG WCI 25  
ELY SNOW 32 30 93 W7 29.43R VSB 1/2 WCI 26  
HIBBING LGT SNOW 33 31 92 W6 29.47R FOG WCI 28  
EVELETH LGT SNOW 32 32 100 W8 29.47R WCI 25  
DULUTH HARBOR DRIZZLE 36 34 93 SW15 29.50S  
TWO HARBORS CLOUDY 36 30 80 SW7 29.45S HAZE  
SILVER BAY LGT RAIN 34 32 93 S6 29.44S VSB 3/4 WCI 29  
GRAND MARAIS N/A 33 32 96 SW14 29.47F WCI 23  
G MARAIS ARPRT LGT SNOW 28 27 93 S9G17 29.41F WCI 20  

 
MNZ029>031-032-039>041-046>048-054>057-064-291700-  
WEST CENTRAL MINNESOTA  
 
CITY SKY/WX TMP DP RH WIND PRES REMARKS
 
FERGUS FALLS PTSUNNY 39 37 93 NW33G40 29.79R  
WHEATON MOSUNNY 43 34 70 NW26G37 29.84R  
MORRIS CLOUDY 41 37 87 NW39G48 29.75R  
ALEXANDRIA CLOUDY 39 34 82 NW29G39 29.70R  
ELBOW LAKE CLOUDY 38 33 84 N29G37 29.77R  
WADENA CLOUDY 37 34 87 NW26G37 29.66R  
GLENWOOD CLOUDY 39 36 87 NW29G37 29.70R  
APPLETON CLOUDY 45 37 76 NW30G40 29.81R  
BENSON CLOUDY 41 36 81 N36G44 29.75R  
ORTONVILLE PTSUNNY 43 36 75 NW29G41 29.83R  
MADISON CLOUDY 45 37 76 NW38G47 29.82R  
WILLMAR PTSUNNY 41 37 87 NW38G52 29.72R  

 
MNZ033>034-036-042>043-049>051-058-059-291700-  
CENTRAL MINNESOTA  
 
CITY SKY/WX TMP DP RH WIND PRES REMARKS
 
ST CLOUD RAIN 40 36 86 NW22G43 29.58R FOG  
SAUK CENTRE CLOUDY 38 35 88 NW31G38 29.65R  
PAYNESVILLE LGT RAIN 37 35 93 W29G37 29.66R  
AITKIN CLOUDY 39 36 87 NW8G17 29.51R  
PINE RIVER CLOUDY 39 36 87 NW18G30 29.62R  
BRAINERD LGT RAIN 40 37 89 NW15G29 29.56R  
STAPLES CLOUDY 39 36 87 NW22G33 29.62R  
LONG PRAIRIE CLOUDY 36 34 93 W23G38 29.64R  
LITTLE FALLS MIX PCPN 37 36 93 NW14G21 29.59R  
LITCHFIELD DRIZZLE 41 39 93 NW21G39 29.65R  
MAPLE LAKE LGT RAIN 42 38 86 W29G38 29.59R  

 
MNZ037-044-045-052-053-291700-  
EAST CENTRAL MINNESOTA  
 
CITY SKY/WX TMP DP RH WIND PRES REMARKS
 
PRINCETON RAIN 45 39 81 W14G20 29.53R  
MORA CLOUDY 37 34 87 W6 29.53R  
CAMBRIDGE DRIZZLE 43 36 75 W7 29.50R  
RUSH CITY CLOUDY 38 35 87 SW7 29.52R  
MOOSE LAKE LGT SNOW 34 32 93 CALM 29.49R  
HINCKLEY RAIN 36 34 93 SW5 29.51R  
CLOQUET LGT SNOW 34 32 93 SW5 29.48R WCI 30  
MCGREGOR CLOUDY 34 32 93 SW5 29.51R WCI 30  

 
MNZ071>073-080-081-089-090-097-098-291700-  
SOUTHWEST MINNESOTA  
 
CITY SKY/WX TMP DP RH WIND PRES REMARKS
 
MONTEVIDEO CLOUDY 43 39 87 N32G45 29.77R  
GRANITE FALLS CLOUDY 42 38 83 NW35G44 29.78R  
CANBY CLOUDY 44 39 83 NW32G40 29.83R  
MARSHALL CLOUDY 45 36 70 NW38G48 29.79R  
REDWOOD FALLS LGT RAIN 44 39 82 NW24G35 29.73R  
OLIVIA PTSUNNY 41 37 87 NW31G45 29.70R  
PIPESTONE CLOUDY 45 36 70 N33G46 29.84R  
WINDOM CLOUDY 46 37 71 NW31G45 29.76R  
WORTHINGTON CLOUDY N/A N/A N/A NW30G39 29.79R  
JACKSON CLOUDY 48 37 66 NW32G41 29.75R  
TRACY CLOUDY 45 39 79 NW26G39 29.78R  
SLAYTON CLOUDY 44 36 72 NW32G44 29.80R  

 
MNZ065>067-074>077-082>085-091>093-291700-  
SOUTH CENTRAL MINNESOTA  
 
CITY SKY/WX TMP DP RH WIND PRES REMARKS
 
MANKATO CLOUDY 48 39 71 NW28G40 29.66R  
NEW ULM LGT RAIN 46 39 76 NW36G44 29.67R  
ST JAMES CLOUDY 48 43 81 W25G38 29.73R  
FAIRMONT CLOUDY 54 36 50 NW35G45 29.71R  
GLENCOE LGT RAIN 44 41 88 W31G38 29.62R  
FARIBAULT PTSUNNY 46 39 76 SW14G21 29.62S  
OWATONNA MOSUNNY 46 39 76 W17G25 29.64S  
WASECA MOSUNNY 52 43 71 W21G29 29.65F  
ALBERT LEA MOSUNNY 54 43 66 W16G22 29.66S  

 
MNZ078>079-086>088-094>096-291700-  
SOUTHEAST MINNESOTA  
 
CITY SKY/WX TMP DP RH WIND PRES REMARKS
 
ROCHESTER MOSUNNY 37 33 85 SW23 29.65F  
RED WING CLOUDY 45 36 70 SW13 29.58F  
STANTON CLOUDY 45 37 73 SW14G21 29.59F  
DODGE CENTER MOSUNNY 39 37 93 SW17 29.63F  
WINONA CLOUDY 41 32 70 SW14G20 29.67F  
AUSTIN SUNNY 46 39 76 SW13G20 29.66F  
PRESTON CLOUDY 36 33 88 SW22G30 29.69F  

 
ABBREVIATIONS USED IN REMARKS  
TC - TEMPERATURES IN CELSIUS  
WCI - WIND CHILL INDEX  
HX - HEAT INDEX  
VSB - VISIBILITY  

 
 
CLICK HERE TO GO TO PREVIOUS BULLETINS.

The Nexlab MN Page Main Text Page